Location: Home
(40.5300°N, 105.0300°W)
Time: 00:47:39
(UTC-06:00)

STARLINK-2707 - Visible Passes

Search period start: 26 October 2021 00:00
Search period end: 05 November 2021 00:00
Orbit: 546 x 548 km, 53.1° (Epoch: 26 October)

Date Brightness Start Highest point End Pass type
(mag) Time Alt. Az. Time Alt. Az. Time Alt. Az.
26 Oct 5.4 05:04:57 24° SSE 05:05:43 25° SE 05:09:07 10° ENE visible
26 Oct 3.9 06:41:02 10° WSW 06:45:01 48° NNW 06:49:02 10° NE visible
27 Oct 5.1 04:59:43 33° ESE 04:59:43 33° ESE 05:03:03 10° ENE visible
27 Oct 4.2 06:35:21 13° W 06:38:46 38° NNW 06:42:40 10° NE visible
28 Oct 5.3 04:54:12 33° E 04:54:12 33° E 04:56:47 10° ENE visible
28 Oct 4.5 06:29:50 16° W 06:32:27 31° NNW 06:36:10 10° NE visible
29 Oct 5.7 04:48:27 26° ENE 04:48:27 26° ENE 04:50:21 10° ENE visible
29 Oct 4.8 06:24:03 18° WNW 06:26:02 26° NNW 06:29:34 10° NE visible
30 Oct 6.1 04:42:28 20° NE 04:42:28 20° NE 04:43:46 10° NE visible
30 Oct 5.1 06:18:04 19° NW 06:19:33 23° NNW 06:22:53 10° NNE visible
31 Oct 6.4 04:36:17 15° NE 04:36:17 15° NE 04:37:02 10° NE visible
31 Oct 5.2 06:11:53 18° NW 06:12:58 20° NNW 06:16:04 10° NNE visible
01 Nov 6.7 04:29:57 11° NE 04:29:57 11° NE 04:30:10 10° NE visible
01 Nov 5.4 06:05:31 17° NNW 06:06:17 18° NNW 06:09:11 10° NNE visible
02 Nov 5.5 05:59:01 16° NNW 05:59:31 17° NNW 06:02:13 10° NNE visible
03 Nov 5.7 05:52:22 15° NNW 05:52:40 15° N 05:55:10 10° NNE visible
04 Nov 5.8 05:45:35 15° N 05:45:42 15° N 05:48:05 10° NNE visible
